Location: Clifton Park
(41.4873°N, 81.8024°W)
Time: 19:28:03
(UTC+00:00)

Cosmos 2251 Rocket - Pass Details

Date: 21 January 2020
Orbit: 764 x 792 km, 74.0° (Epoch: 27 February)

Event Time Altitude Azimuth Distance (km) Brightness Sun altitude
Rises 01:00:10 0° 339° (NNW) 3,258 7.0 -28.3°
Reaches altitude 10° 01:02:33 10° 338° (NNW) 2,331 6.2 -28.7°
Enters shadow 01:06:23 49° 331° (NNW) 1,001 4.1 -29.4°
